• In United Kingdom
  • List of Countries
  • For 7 days
  • Water Temperature
  • Satellite Maps
  • Weather Map
  • Weather Widgets
  • user-avatar
    Login

    Hourly Weather Córdoba

    Today, 24 November, Friday

    Time Temperature Precipitation Wind Pressure Humidity
    00:00 +21°C° 0 mm 5 mps 722 mmHg 29%
    01:00 +20°C° 0 mm 5 mps 722 mmHg 32%
    02:00 +19°C° 0 mm 4 mps 722 mmHg 37%
    03:00 +18°C° 0 mm 4 mps 723 mmHg 41%
    04:00 +17°C° 0 mm 4 mps 723 mmHg 46%
    05:00 +15°C° 0 mm 4 mps 723 mmHg 51%
    06:00 +15°C° 0 mm 4 mps 724 mmHg 48%
    07:00 +17°C° 0 mm 4 mps 724 mmHg 46%
    08:00 +18°C° 0 mm 4 mps 725 mmHg 43%
    09:00 +20°C° 0 mm 4 mps 725 mmHg 38%
    10:00 +22°C° 0 mm 4 mps 725 mmHg 33%
    11:00 +23°C° 0 mm 4 mps 725 mmHg 28%
    12:00 +25°C° 0.1 mm 4 mps 725 mmHg 27%
    13:00 +26°C° 0.1 mm 5 mps 724 mmHg 27%
    14:00 +27°C° 0.1 mm 5 mps 724 mmHg 26%
    15:00 +26°C° 0.1 mm 5 mps 723 mmHg 29%
    16:00 +25°C° 0.1 mm 5 mps 723 mmHg 31%
    17:00 +25°C° 0.1 mm 5 mps 723 mmHg 34%
    18:00 +22°C° 0 mm 4 mps 723 mmHg 40%
    19:00 +20°C° 0 mm 3 mps 724 mmHg 46%
    20:00 +18°C° 0 mm 3 mps 724 mmHg 52%
    21:00 +17°C° 0 mm 2 mps 725 mmHg 54%
    22:00 +17°C° 0 mm 2 mps 725 mmHg 55%
    23:00 +16°C° 0 mm 1 mps 725 mmHg 57%

    Tomorrow, 25 November, Saturday

    Time Temperature Precipitation Wind Pressure Humidity
    00:00 +16°C° 0.1 mm 1 mps 725 mmHg 57%
    01:00 +16°C° 0.1 mm 2 mps 725 mmHg 57%
    02:00 +16°C° 0.1 mm 2 mps 724 mmHg 56%
    03:00 +16°C° 0 mm 1 mps 724 mmHg 58%
    04:00 +15°C° 0 mm 1 mps 724 mmHg 60%
    05:00 +15°C° 0 mm 1 mps 724 mmHg 62%
    06:00 +18°C° 0 mm 1 mps 725 mmHg 56%
    07:00 +20°C° 0 mm 1 mps 725 mmHg 51%
    08:00 +21°C° 0 mm 2 mps 726 mmHg 45%
    09:00 +24°C° 0 mm 2 mps 726 mmHg 41%
    10:00 +26°C° 0 mm 2 mps 726 mmHg 37%
    11:00 +28°C° 0 mm 3 mps 726 mmHg 33%
    12:00 +29°C° 0 mm 3 mps 725 mmHg 30%
    13:00 +30°C° 0 mm 3 mps 725 mmHg 28%
    14:00 +32°C° 0 mm 4 mps 724 mmHg 25%
    15:00 +32°C° 0 mm 4 mps 724 mmHg 26%
    16:00 +32°C° 0 mm 4 mps 723 mmHg 26%
    17:00 +32°C° 0 mm 4 mps 723 mmHg 27%
    18:00 +28°C° 0 mm 3 mps 723 mmHg 33%
    19:00 +26°C° 0 mm 3 mps 723 mmHg 39%
    20:00 +24°C° 0 mm 2 mps 723 mmHg 45%
    21:00 +23°C° 0 mm 2 mps 723 mmHg 48%
    22:00 +21°C° 0 mm 2 mps 724 mmHg 52%
    23:00 +20°C° 0 mm 2 mps 724 mmHg 55%

    Day after tomorrow, 26 November, Sunday

    Time Temperature Precipitation Wind Pressure Humidity
    00:00 +20°C° 0 mm 2 mps 723 mmHg 56%
    01:00 +20°C° 0 mm 2 mps 723 mmHg 56%
    02:00 +20°C° 0 mm 2 mps 722 mmHg 57%
    03:00 +19°C° 0 mm 2 mps 722 mmHg 57%
    04:00 +19°C° 0 mm 2 mps 722 mmHg 58%
    05:00 +19°C° 0 mm 2 mps 722 mmHg 59%
    06:00 +21°C° 0 mm 3 mps 722 mmHg 52%
    07:00 +25°C° 0 mm 3 mps 722 mmHg 45%
    08:00 +27°C° 0 mm 4 mps 723 mmHg 39%
    09:00 +29°C° 0 mm 4 mps 722 mmHg 34%
    10:00 +32°C° 0 mm 4 mps 722 mmHg 29%
    11:00 +34°C° 0 mm 5 mps 722 mmHg 24%
    12:00 +35°C° 0 mm 5 mps 721 mmHg 22%
    13:00 +36°C° 0 mm 5 mps 720 mmHg 21%
    14:00 +37°C° 0 mm 5 mps 719 mmHg 19%
    15:00 +36°C° 0 mm 5 mps 719 mmHg 20%
    16:00 +36°C° 0 mm 5 mps 718 mmHg 21%
    17:00 +35°C° 0 mm 6 mps 718 mmHg 22%
    18:00 +33°C° 0 mm 5 mps 718 mmHg 26%
    19:00 +29°C° 0 mm 4 mps 718 mmHg 31%
    20:00 +27°C° 0 mm 3 mps 718 mmHg 36%
    21:00 +26°C° 0 mm 3 mps 719 mmHg 38%
    22:00 +25°C° 0 mm 3 mps 719 mmHg 40%
    23:00 +24°C° 0 mm 3 mps 719 mmHg 42%

    27 November, Monday

    Time Temperature Precipitation Wind Pressure Humidity
    00:00 +24°C° 0 mm 3 mps 719 mmHg 43%
    01:00 +24°C° 0 mm 3 mps 719 mmHg 44%
    02:00 +22°C° 0 mm 3 mps 719 mmHg 44%
    03:00 +22°C° 0 mm 3 mps 719 mmHg 45%
    04:00 +22°C° 0 mm 3 mps 720 mmHg 47%
    05:00 +22°C° 0 mm 4 mps 721 mmHg 48%
    06:00 +22°C° 0 mm 6 mps 722 mmHg 47%
    07:00 +22°C° 0 mm 8 mps 724 mmHg 47%
    08:00 +22°C° 0 mm 10 mps 725 mmHg 46%
    09:00 +22°C° 0 mm 9 mps 726 mmHg 43%
    10:00 +23°C° 0 mm 9 mps 726 mmHg 40%
    11:00 +23°C° 0 mm 9 mps 727 mmHg 37%
    12:00 +24°C° 0 mm 8 mps 727 mmHg 33%
    13:00 +26°C° 0 mm 8 mps 726 mmHg 30%
    14:00 +27°C° 0 mm 7 mps 726 mmHg 26%
    15:00 +27°C° 0 mm 7 mps 726 mmHg 26%
    16:00 +27°C° 0 mm 7 mps 726 mmHg 25%
    17:00 +26°C° 0 mm 6 mps 725 mmHg 25%
    18:00 +23°C° 0 mm 5 mps 726 mmHg 28%
    19:00 +21°C° 0 mm 4 mps 726 mmHg 31%
    20:00 +20°C° 0 mm 3 mps 727 mmHg 35%
    21:00 +19°C° 0 mm 3 mps 727 mmHg 37%
    22:00 +18°C° 0 mm 2 mps 728 mmHg 38%
    23:00 +17°C° 0 mm 2 mps 728 mmHg 40%

    28 November, Tuesday

    Time Temperature Precipitation Wind Pressure Humidity
    00:00 +17°C° 0 mm 2 mps 728 mmHg 41%
    01:00 +16°C° 0 mm 2 mps 727 mmHg 43%
    02:00 +16°C° 0 mm 2 mps 727 mmHg 44%
    03:00 +15°C° 0 mm 2 mps 727 mmHg 47%
    04:00 +14°C° 0 mm 2 mps 728 mmHg 50%
    05:00 +13°C° 0 mm 1 mps 728 mmHg 53%
    06:00 +15°C° 0 mm 2 mps 728 mmHg 50%
    07:00 +17°C° 0 mm 2 mps 729 mmHg 48%
    08:00 +18°C° 0 mm 3 mps 729 mmHg 45%
    09:00 +21°C° 0 mm 3 mps 729 mmHg 41%
    10:00 +24°C° 0 mm 3 mps 729 mmHg 37%
    11:00 +26°C° 0 mm 4 mps 728 mmHg 34%
    12:00 +27°C° 0 mm 4 mps 727 mmHg 32%
    13:00 +28°C° 0 mm 4 mps 727 mmHg 30%
    14:00 +30°C° 0 mm 5 mps 726 mmHg 28%
    15:00 +30°C° 0 mm 5 mps 725 mmHg 28%
    16:00 +29°C° 0 mm 5 mps 725 mmHg 29%
    17:00 +29°C° 0 mm 5 mps 724 mmHg 30%
    18:00 +27°C° 0 mm 4 mps 724 mmHg 34%
    19:00 +24°C° 0 mm 3 mps 724 mmHg 38%
    20:00 +21°C° 0 mm 2 mps 724 mmHg 42%
    21:00 +20°C° 0 mm 2 mps 725 mmHg 43%
    22:00 +20°C° 0 mm 2 mps 725 mmHg 44%
    23:00 +19°C° 0 mm 2 mps 725 mmHg 45%

    29 November, Wednesday

    Time Temperature Precipitation Wind Pressure Humidity
    00:00 +19°C° 0 mm 2 mps 725 mmHg 46%
    01:00 +18°C° 0 mm 2 mps 724 mmHg 46%
    02:00 +19°C° 0 mm 1 mps 724 mmHg 47%
    03:00 +18°C° 0 mm 1 mps 724 mmHg 47%
    04:00 +17°C° 0 mm 2 mps 724 mmHg 48%
    05:00 +16°C° 0 mm 2 mps 724 mmHg 49%
    06:00 +19°C° 0 mm 2 mps 724 mmHg 43%
    07:00 +22°C° 0 mm 3 mps 724 mmHg 37%
    08:00 +25°C° 0 mm 3 mps 725 mmHg 32%
    09:00 +27°C° 0 mm 4 mps 725 mmHg 29%
    10:00 +29°C° 0 mm 4 mps 724 mmHg 26%
    11:00 +32°C° 0 mm 5 mps 724 mmHg 24%
    12:00 +33°C° 0 mm 5 mps 723 mmHg 23%
    13:00 +34°C° 0 mm 5 mps 722 mmHg 22%
    14:00 +35°C° 0 mm 5 mps 722 mmHg 21%
    15:00 +34°C° 0 mm 6 mps 721 mmHg 22%
    16:00 +34°C° 0 mm 6 mps 721 mmHg 23%
    17:00 +33°C° 0 mm 6 mps 720 mmHg 23%
    18:00 +30°C° 0 mm 5 mps 720 mmHg 26%
    19:00 +27°C° 0 mm 4 mps 720 mmHg 29%
    20:00 +25°C° 0 mm 2 mps 721 mmHg 32%
    21:00 +24°C° 0 mm 2 mps 721 mmHg 34%
    22:00 +24°C° 0 mm 2 mps 721 mmHg 35%
    23:00 +23°C° 0 mm 2 mps 721 mmHg 36%
    Show more